Regional Weather Roundup
Issued by NWS

Home | Current Version | Previous Version | Graphics & Text | Print | Product List | Glossary On
Versions: 1 2 3 4 5 6 7 8 9 10 11 12 13 14 15 16 17 18 19 20 21 22 23 24 25 26 27 28 29 30 31 32 33 34 35 36 37 38 39 40 41 42 43 44 45 46 47 48 49 50
000
ASUS43 KOAX 230902
RWRNE

WEATHER ROUNDUP FOR NEBRASKA
NATIONAL WEATHER SERVICE OMAHA NE
400 AM CDT FRI JUN 23 2017

NOTES: SATELLITE DATA IS BEING USED TO AUGMENT CLOUD COVER ABOVE
       12000 FEET.
       "FAIR" INDICATES FEW OR NO CLOUDS BELOW 12,000 FEET WITH NO
       SIGNIFICANT WEATHER AND/OR OBSTRUCTIONS TO VISIBILITY.

  * THESE STATIONS DO NOT REPORT WEATHER SUCH AS RAIN...SNOW OR FOG.

NEZ001>004-019>022-054>056-231000-
NEBRASKA PANHANDLE

CITY           SKY/WX    TMP DP  RH WIND       PRES   REMARKS
SCOTTSBLUFF    CLOUDY    62  35  36 N17G24    30.17R
ALLIANCE       CLOUDY    57  38  48 N15       30.16R
CHADRON        LGT RAIN  53  46  77 CALM      30.19R
GORDON         CLOUDY    55  39  53 N12G21    30.14R
KIMBALL        CLOUDY    54  48  80 NE17G23   30.17S
SIDNEY         CLOUDY    58  54  86 N12       30.14R
$$

NEZ057>060-069>072-079>082-231000-
SOUTHWEST NEBRASKA

CITY           SKY/WX    TMP DP  RH WIND       PRES   REMARKS
NORTH PLATTE   CLOUDY    62  54  74 NW6       30.01R
IMPERIAL       LGT RAIN  59  53  80 E16       30.00F
LEXINGTON      MOCLDY    62  54  74 NW5       29.97R
MCCOOK         CLOUDY    62  51  67 E6        29.94F
OGALLALA       CLOUDY    63  53  70 CALM      30.05F
$$

NEZ005>010-023>029-035>040-094-231000-
NORTH CENTRAL NEBRASKA

CITY           SKY/WX    TMP DP  RH WIND       PRES   REMARKS
VALENTINE      CLOUDY    62  34  35 NW15      30.05R
AINSWORTH      CLOUDY    60  39  44 N15G23    30.05R
BROKEN BOW     CLOUDY    65  48  54 N13       29.96R
O`NEILL        MOCLDY    61  49  65 NW13G18   29.99R
ORD            CLOUDY    61  49  64 NW12      29.93R
THEDFORD       LGT RAIN  59  45  59 N10       30.07S
$$

NEZ041-046>049-061>064-073>077-083>087-231000-
SOUTH CENTRAL NEBRASKA

CITY           SKY/WX    TMP DP  RH WIND       PRES   REMARKS
GRAND ISLAND   CLOUDY    61  55  81 N10       29.89S
AURORA         CLOUDY    63  56  78 NE9       29.86F
HASTINGS       CLOUDY    66  54  65 N7        29.91R
HEBRON         CLOUDY    70  60  70 N8        29.85R
HOLDREGE       CLOUDY    64  50  61 N7        29.93R
KEARNEY *      PTCLDY    64  52  63 N9        29.93R
$$

NEZ011>018-030>034-042>045-231000-
NORTHEAST NEBRASKA

CITY           SKY/WX    TMP DP  RH WIND       PRES   REMARKS
NORFOLK        MOCLDY    57  52  83 W5        29.86F
ALBION         CLOUDY    59  52  78 NW6       29.89F
BLAIR          PTCLDY    64  58  80 N7        29.83R
FREMONT        CLOUDY    61  53  74 CALM      29.84R
TEKAMAH        CLEAR     59  52  77 NW7       29.82S
WAYNE          CLEAR     53  53  99 CALM      29.85F
$$

NEZ050>053-065>068-078-088>093-231000-
SOUTHEAST NEBRASKA

CITY           SKY/WX    TMP DP  RH WIND       PRES   REMARKS
LINCOLN        MOCLDY    68  59  73 N13       29.83R
OMAHA EPPLEY   MOCLDY    66  58  75 NW9       29.80S
BEATRICE       CLOUDY    70  61  73 NE12      29.81R
FALLS CITY     CLOUDY    70  65  84 N8        29.77R
NEBRASKA CITY  MOCLDY    67  67  98 N8        29.79S
PLATTSMOUTH    MOCLDY    66  58  77 CALM      29.80R
$$

NEZ044-045-051>053-067-231000-
OMAHA AREA

CITY           SKY/WX    TMP DP  RH WIND       PRES   REMARKS
OMAHA EPPLEY   MOCLDY    66  58  75 NW9       29.80S
BLAIR          PTCLDY    64  58  80 N7        29.83R
FREMONT        CLOUDY    61  53  74 CALM      29.84R
MILLARD        PTCLDY    71  61  71 NW3       29.81R
OFFUTT AFB     PTCLDY    69  61  76 CALM      29.85F
PLATTSMOUTH    MOCLDY    66  58  77 CALM      29.80R
WAHOO          FAIR      63  54  71 N6        29.83R
$$



USA.gov is the U.S. government's official web portal to all federal, state and local government web resources and services.